Content
SEND FEEDBACK

Daily
Averages
Monthly
Summary
French Polynesia

PAPEETE, FRENCH POLYNESIA


Home > Oceania > French Polynesia
Elevation: 7 feet     Latitude: 17 33S     Longitude: 149 36W

WEATHER
 
SELECT A DAY
Number of Records: 208,190;   Date Range: 6/30/96 - 7/27/14
 
SHARE

PRINT THIS DATA

[ ← Previous Day ]
WEATHER ALMANAC - FEBRUARY 22, 2013
[ Next Day → ]
[ °C ]   °F
Weather ElementAverageHighLow
Temperature80.8 °F87.8 °F (1:30 pm)73.4 °F (5:30 am)
Dewpoint69.7 °F71.6 °F (9:00 am)66 °F (8:00 am)
Humidity68.5 %83 % (3:30 am)47 % (11:00 am)
Barometer29.86 in29.92 in (9:00 am)29.80 in (4:00 pm)
Wind Speed4.9 mph13.8 mph (12:00 pm)
Weather ElementAverage
Visibility7.7 mi
Wind DirectionSSE (158.3 °)

Weather ElementTotal
Precipitation---
Cooling Degree Days15.6 (Base 65)
Growing Degree Days30.6 (Base 50)
Averaged from 55 records on February 22, 2013
WEATHER CONDITIONS BREAKOUT
WIND DIRECTION BREAKOUT
WEATHER BY HOUR - FEBRUARY 22, 2013
[ °C ]   °F
Local TimeTemperatureDewpointHumidityBarometerVisibilityWind DirectionWind SpeedGust SpeedPrecipitationEventsConditions
12:30 AM80.6 °F69.8 °F70 %29.86 in6.2 miWNW (290°)10.4 mphMostly Cloudy
1:00 AM78.8 °F69.8 °F74 %29.86 in6.2 miNW (320°)6.9 mphMostly Cloudy
1:30 AM78.8 °F69.8 °F74 %29.86 in6.2 miESE (120°)3.5 mphMostly Cloudy
2:00 AM77.0 °F69.0 °F71 %29.87 in12.0 miSSE (160°)4.5 mphPartly Cloudy
2:00 AM77.0 °F69.8 °F78 %29.86 in6.2 miVariable2.3 mphMostly Cloudy
2:30 AM77.0 °F69.8 °F78 %29.86 in6.2 miEast (80°)3.5 mphMostly Cloudy
3:00 AM77.0 °F69.8 °F78 %29.86 in6.2 miVariable3.5 mphScattered Clouds
3:30 AM75.2 °F69.8 °F83 %29.86 in6.2 miEast (80°)6.9 mph
4:00 AM75.2 °F69.8 °F83 %29.86 in6.2 miEast (90°)3.5 mphRainLight Rain
4:30 AM75.2 °F69.8 °F83 %29.86 in6.2 miVariable2.3 mphOvercast
5:00 AM75.0 °F69.0 °F77 %29.86 in37.0 miCalmClear
5:00 AM75.2 °F69.8 °F83 %29.83 in6.2 miCalm
5:30 AM73.4 °F68.0 °F83 %29.86 in6.2 miEast (90°)5.8 mph
6:00 AM73.4 °F68.0 °F83 %29.86 in6.2 miSSE (150°)3.5 mphPartly Cloudy
6:30 AM73.4 °F68.0 °F83 %29.86 in6.2 miVariable2.3 mphPartly Cloudy
7:00 AM77.0 °F68.0 °F74 %29.86 in6.2 miEast (80°)4.6 mphPartly Cloudy
7:30 AM80.6 °F69.8 °F70 %29.89 in6.2 miSouth (180°)8.1 mphPartly Cloudy
8:00 AM82.0 °F66.0 °F49 %29.91 in19.0 miNE (40°)1.2 mphPartly Cloudy
8:00 AM82.4 °F66.2 °F58 %29.89 in6.2 miNE (40°)1.2 mphScattered Clouds
8:30 AM84.2 °F69.8 °F62 %29.89 in6.2 miSSW (210°)9.2 mphScattered Clouds
9:00 AM84.2 °F71.6 °F66 %29.92 in6.2 miWSW (240°)3.5 mphScattered Clouds
9:30 AM84.2 °F69.8 °F62 %29.92 in6.2 miWest (260°)4.6 mphPartly Cloudy
10:00 AM84.2 °F71.6 °F66 %29.89 in6.2 miWNW (300°)4.6 mphPartly Cloudy
10:30 AM86.0 °F69.8 °F58 %29.89 in6.2 miWNW (300°)8.1 mphPartly Cloudy
11:00 AM86.0 °F69.0 °F47 %29.90 in19.0 miWNW (300°)6.9 mphPartly Cloudy
11:00 AM86.0 °F68.0 °F55 %29.89 in6.2 miWNW (300°)6.9 mphScattered Clouds
11:30 AM86.0 °F71.6 °F62 %29.86 in6.2 miWest (260°)9.2 mphScattered Clouds
12:00 PM86.0 °F68.0 °F55 %29.86 in6.2 miSW (220°)13.8 mphScattered Clouds
12:30 PM86.0 °F68.0 °F55 %29.86 in6.2 miSW (230°)10.4 mphMostly Cloudy
1:00 PM86.0 °F68.0 °F55 %29.83 in6.2 miWSW (250°)4.6 mphScattered Clouds
1:30 PM87.8 °F68.0 °F52 %29.83 in6.2 miSSW (210°)9.2 mphScattered Clouds
2:00 PM87.0 °F70.0 °F49 %29.85 in9.0 miSW (230°)5.8 mphMostly Cloudy
2:00 PM87.8 °F69.8 °F55 %29.83 in6.2 miSW (230°)5.8 mphMostly Cloudy
2:30 PM82.4 °F71.6 °F70 %29.83 in4.3 miESE (120°)8.1 mphRain-ThunderstormLight Rain Showers
3:00 PM80.6 °F71.6 °F74 %29.83 in6.2 miSSE (150°)5.8 mphScattered Clouds
3:30 PM82.4 °F71.6 °F70 %29.83 in6.2 miNE (50°)10.4 mphScattered Clouds
4:00 PM84.2 °F69.8 °F62 %29.80 in6.2 miVariable3.5 mphPartly Cloudy
4:36 PM84.2 °F69.8 °F62 %29.80 in6.2 miNorth (350°)3.5 mphPartly Cloudy
5:00 PM85.0 °F71.0 °F54 %29.82 in16.0 miNW (310°)5.8 mphPartly Cloudy
5:00 PM86.0 °F71.6 °F62 %29.80 in6.2 miNW (310°)5.8 mphPartly Cloudy
5:30 PM84.2 °F69.8 °F62 %29.83 in6.2 miSW (220°)4.6 mphPartly Cloudy
6:00 PM82.4 °F71.6 °F70 %29.83 in6.2 miWSW (250°)4.6 mphPartly Cloudy
6:30 PM82.4 °F69.8 °F66 %29.83 in6.2 miVariable1.2 mphScattered Clouds
7:00 PM80.6 °F69.8 °F70 %29.86 in6.2 miNorth (360°)3.5 mphScattered Clouds
7:30 PM80.6 °F69.8 °F70 %29.86 in6.2 miNorth (360°)2.3 mphScattered Clouds
8:00 PM80.0 °F71.0 °F67 %29.87 in12.0 miENE (70°)3.5 mphPartly Cloudy
8:00 PM80.6 °F71.6 °F74 %29.86 in6.2 miENE (70°)3.5 mphPartly Cloudy
8:30 PM78.8 °F71.6 °F78 %29.86 in6.2 miEast (100°)3.5 mphPartly Cloudy
9:00 PM78.8 °F71.6 °F78 %29.86 in6.2 miVariable2.3 mphMostly Cloudy
9:30 PM78.8 °F69.8 °F74 %29.86 in6.2 miVariable2.3 mphMostly Cloudy
10:00 PM78.8 °F69.8 °F74 %29.86 in6.2 miSouth (170°)5.8 mphPartly Cloudy
10:30 PM78.8 °F69.8 °F74 %29.86 in6.2 miSSE (160°)3.5 mphPartly Cloudy
11:00 PM77.0 °F69.0 °F71 %29.87 in12.0 miENE (70°)3.5 mphScattered Clouds
11:00 PM77.0 °F69.8 °F78 %29.86 in6.2 miENE (70°)3.5 mphPartly Cloudy
11:30 PM77.0 °F69.8 °F78 %29.83 in6.2 miEast (100°)3.5 mphPartly Cloudy
Hourly data recorded from NTAA, located miles away from Papeete, French Polynesia







STORIES FROM OUR PARTNERS